Flag Weather past 2 weeks in Arviat, Nunavut Territory, Canada

Now
-18 °F

Clear.


Feels Like: -48 °F
Forecast: N/A
Wind: 24 mph from Northwest

Location: Arviat Airport

Current Time: Nov 25, 2014 at 5:47:58 PM

Latest Report: Nov 25, 2014 at 5:00 PM


Visibility: 12 mi

Pressure: 30.02 "Hg

Humidity: 75%

Dew point: -24 °F

Location of ArviatLocation

Historic Weather in Arviat — Graph

°F

Arviat temperature yesterday

Maximum temperature yesterday: -15 °F (at 3:00 AM)
Minimum temperature yesterday: -24 °F (at 5:00 PM)
Average temperature yesterday: -20 °F

Past Weeks' High & Low Weather Summary

 TemperatureHumidityPressure
High18 °F (Nov 10, 4:00 PM)93% (Nov 10, 4:00 PM)30.72 "Hg (Nov 10, 4:00 PM)
Low-24 °F (Nov 24, 5:00 PM)68% (Nov 22, 9:00 AM)29.46 "Hg (Nov 18, 11:00 AM)
Average-8 °F79%29.97 "Hg
* Reported Nov 10 4:00 PM — Nov 25 4:00 PM, Arviat, Weather by CustomWeather, © 2014

Note: Actual official high and low records may vary slightly from our data, if they occured in-between our weather recording intervals... More about our weather records

Advertising

Arviat weather history for previous 24 hours

 ConditionsComfort  
Time TempWeatherWind HumidityBarometerVisibility
4:00 PM
Nov 25
-17 °FLow level haze.23 mph76%30.01 "Hg8 mi
3:00 PM-15 °FScattered clouds.24 mph76%30.01 "Hg10 mi
2:00 PM-13 °FBroken clouds.20 mph76%30.00 "Hg10 mi
1:00 PM-13 °FPartly sunny.24 mph76%29.98 "Hg10 mi
12:00 PM-15 °FBroken clouds.23 mph76%29.96 "Hg8 mi
11:00 AM-15 °FPartly sunny.21 mph69%29.96 "Hg10 mi
10:00 AM-17 °FLow level haze.22 mph69%29.95 "Hg8 mi
9:00 AM-18 °FLow level haze.22 mph75%29.92 "Hg8 mi
8:00 AM-18 °FClear.24 mph75%29.91 "Hg10 mi
7:00 AM-20 °FClear.21 mph75%29.90 "Hg12 mi
6:03 AM-20 °FClear.23 mph75%29.90 "Hg7 mi
5:00 AM-22 °FClear.22 mph75%29.89 "Hg8 mi
4:01 AM-22 °FClear.17 mph75%29.88 "Hg6 mi
3:00 AM-22 °FClear.18 mph68%29.87 "Hg6 mi
2:00 AM-22 °FClear.23 mph68%29.85 "Hg3 mi
1:57 AM-22 °FClear.23 mph68%29.85 "Hg3 mi
1:00 AM-22 °FClear.23 mph75%29.85 "Hg5 mi
12:45 AM-22 °FClear.23 mph75%29.85 "Hg5 mi
12:00 AM-22 °FClear.22 mph68%29.84 "Hg4 mi
11:00 PM
Nov 24
-22 °FClear.21 mph68%29.85 "Hg4 mi
10:00 PM-24 °FClear.18 mph75%29.84 "Hg9 mi
9:00 PM-22 °FClear.20 mph68%29.85 "Hg9 mi
8:00 PM-24 °FClear.17 mph75%29.86 "Hg9 mi
7:00 PM-24 °FClear.16 mph68%29.86 "Hg9 mi
6:00 PM-24 °FClear.20 mph68%29.87 "Hg9 mi
5:00 PM-24 °FSnow flurries. Clear.17 mph75%29.87 "Hg12 mi
Weather by CustomWeather, © 2014

See weather overviewHow to use our weather pages